Location: Laterina
(43.5167°N, 11.7167°E)
Time: 15:44:49
(UTC+00:00)

Cosmos 2279 Rocket - Pass Details

Date: 24 September 2020
Orbit: 964 x 979 km, 82.9° (Epoch: 25 October)

Event Time Altitude Azimuth Distance (km) Brightness Sun altitude
Exits shadow 19:12:56 47° 129° (SE) 1,277 4.2 -23.3°
Maximum altitude 19:14:09 54° 91° (E) 1,179 4.0 -23.5°
Drops below altitude 10° 19:20:13 10° 17° (NNE) 2,740 6.4 -24.5°
Sets 19:22:48 0° 13° (NNE) 3,692 7.2 -24.9°
